• în Republica Moldova
  • Lista ţărilor
  • Pe 7 zile
  • Temperatura apei
  • Hartă satelitară
  • Meteo pe hartă
  • Widget-uri
  • user-avatar
    Intrare

    Meteo pe oră la Berat

    Astăzi, 28 Martie, Marţi

    Timp Temperatura Precipitaţii Vânt Presiune Umiditate
    00:00 +9°C° 0 mm 2 m/s 748 mmHg 82%
    01:00 +8°C° 0 mm 2 m/s 747 mmHg 83%
    02:00 +8°C° 0 mm 2 m/s 748 mmHg 83%
    03:00 +8°C° 0 mm 2 m/s 748 mmHg 83%
    04:00 +7°C° 0 mm 2 m/s 748 mmHg 84%
    05:00 +8°C° 0 mm 2 m/s 748 mmHg 81%
    06:00 +8°C° 0 mm 2 m/s 748 mmHg 78%
    07:00 +9°C° 0 mm 2 m/s 748 mmHg 76%
    08:00 +12°C° 0 mm 2 m/s 748 mmHg 67%
    09:00 +14°C° 0 mm 2 m/s 748 mmHg 58%
    10:00 +16°C° 0 mm 2 m/s 748 mmHg 50%
    11:00 +17°C° 0 mm 2 m/s 748 mmHg 46%
    12:00 +18°C° 0 mm 2 m/s 748 mmHg 43%
    13:00 +19°C° 0 mm 2 m/s 748 mmHg 39%
    14:00 +19°C° 0 mm 2 m/s 747 mmHg 41%
    15:00 +18°C° 0 mm 3 m/s 747 mmHg 43%
    16:00 +17°C° 0 mm 3 m/s 747 mmHg 45%
    17:00 +14°C° 0 mm 3 m/s 747 mmHg 53%
    18:00 +12°C° 0 mm 3 m/s 747 mmHg 61%
    19:00 +10°C° 0 mm 2 m/s 748 mmHg 69%
    20:00 +10°C° 0 mm 2 m/s 748 mmHg 69%
    21:00 +9°C° 0 mm 2 m/s 748 mmHg 68%
    22:00 +9°C° 0 mm 2 m/s 748 mmHg 68%
    23:00 +9°C° 0 mm 2 m/s 748 mmHg 67%

    Mâine, 29 Martie, Miercuri

    Timp Temperatura Precipitaţii Vânt Presiune Umiditate
    00:00 +9°C° 0 mm 2 m/s 748 mmHg 66%
    01:00 +8°C° 0 mm 2 m/s 748 mmHg 65%
    02:00 +8°C° 0 mm 2 m/s 748 mmHg 64%
    03:00 +8°C° 0 mm 2 m/s 748 mmHg 63%
    04:00 +8°C° 0 mm 2 m/s 748 mmHg 63%
    05:00 +9°C° 0 mm 2 m/s 748 mmHg 61%
    06:00 +10°C° 0 mm 2 m/s 748 mmHg 59%
    07:00 +12°C° 0 mm 2 m/s 748 mmHg 57%
    08:00 +14°C° 0 mm 2 m/s 748 mmHg 50%
    09:00 +17°C° 0 mm 2 m/s 749 mmHg 43%
    10:00 +19°C° 0 mm 2 m/s 749 mmHg 36%
    11:00 +20°C° 0 mm 2 m/s 748 mmHg 34%
    12:00 +20°C° 0 mm 2 m/s 748 mmHg 32%
    13:00 +21°C° 0 mm 3 m/s 748 mmHg 31%
    14:00 +21°C° 0 mm 3 m/s 747 mmHg 33%
    15:00 +20°C° 0 mm 3 m/s 747 mmHg 36%
    16:00 +20°C° 0 mm 4 m/s 747 mmHg 38%
    17:00 +17°C° 0 mm 3 m/s 747 mmHg 48%
    18:00 +14°C° 0 mm 3 m/s 747 mmHg 58%
    19:00 +12°C° 0 mm 2 m/s 747 mmHg 68%
    20:00 +12°C° 0 mm 2 m/s 747 mmHg 67%
    21:00 +12°C° 0 mm 2 m/s 748 mmHg 66%
    22:00 +10°C° 0 mm 2 m/s 748 mmHg 65%
    23:00 +10°C° 0 mm 2 m/s 748 mmHg 64%

    Poimâine, 30 Martie, Joi

    Timp Temperatura Precipitaţii Vânt Presiune Umiditate
    00:00 +10°C° 0 mm 2 m/s 748 mmHg 63%
    01:00 +10°C° 0 mm 2 m/s 748 mmHg 62%
    02:00 +10°C° 0 mm 2 m/s 748 mmHg 63%
    03:00 +9°C° 0 mm 2 m/s 748 mmHg 63%
    04:00 +9°C° 0 mm 2 m/s 748 mmHg 64%
    05:00 +10°C° 0 mm 2 m/s 748 mmHg 63%
    06:00 +13°C° 0 mm 2 m/s 748 mmHg 61%
    07:00 +14°C° 0 mm 2 m/s 748 mmHg 60%
    08:00 +16°C° 0 mm 2 m/s 748 mmHg 53%
    09:00 +18°C° 0 mm 2 m/s 748 mmHg 46%
    10:00 +20°C° 0 mm 2 m/s 748 mmHg 39%
    11:00 +21°C° 0 mm 3 m/s 748 mmHg 38%
    12:00 +22°C° 0 mm 3 m/s 748 mmHg 36%
    13:00 +22°C° 0 mm 3 m/s 747 mmHg 34%
    14:00 +22°C° 0 mm 3 m/s 747 mmHg 36%
    15:00 +22°C° 0 mm 4 m/s 747 mmHg 38%
    16:00 +21°C° 0 mm 4 m/s 747 mmHg 41%
    17:00 +19°C° 0 mm 4 m/s 747 mmHg 50%
    18:00 +17°C° 0 mm 3 m/s 747 mmHg 60%
    19:00 +13°C° 0 mm 3 m/s 748 mmHg 69%
    20:00 +13°C° 0 mm 3 m/s 748 mmHg 70%
    21:00 +14°C° 0 mm 2 m/s 748 mmHg 70%
    22:00 +13°C° 0 mm 2 m/s 749 mmHg 70%
    23:00 +13°C° 0 mm 2 m/s 749 mmHg 71%

    31 Martie, Vineri

    Timp Temperatura Precipitaţii Vânt Presiune Umiditate
    00:00 +13°C° 0 mm 2 m/s 749 mmHg 72%
    01:00 +12°C° 0 mm 2 m/s 749 mmHg 73%
    02:00 +12°C° 0 mm 2 m/s 749 mmHg 74%
    03:00 +12°C° 0 mm 2 m/s 749 mmHg 76%
    04:00 +12°C° 0 mm 2 m/s 749 mmHg 77%
    05:00 +13°C° 0 mm 2 m/s 749 mmHg 74%
    06:00 +14°C° 0 mm 2 m/s 749 mmHg 72%
    07:00 +15°C° 0 mm 2 m/s 749 mmHg 69%
    08:00 +17°C° 0 mm 2 m/s 749 mmHg 61%
    09:00 +20°C° 0 mm 1 m/s 749 mmHg 53%
    10:00 +22°C° 0 mm 1 m/s 750 mmHg 45%
    11:00 +23°C° 0 mm 2 m/s 749 mmHg 43%
    12:00 +24°C° 0 mm 2 m/s 749 mmHg 42%
    13:00 +24°C° 0 mm 2 m/s 749 mmHg 40%
    14:00 +24°C° 0,2 mm 2 m/s 748 mmHg 43%
    15:00 +22°C° 0,2 mm 3 m/s 748 mmHg 47%
    16:00 +21°C° 0,2 mm 3 m/s 748 mmHg 50%
    17:00 +19°C° 0,1 mm 2 m/s 748 mmHg 59%
    18:00 +17°C° 0,1 mm 2 m/s 748 mmHg 69%
    19:00 +15°C° 0,1 mm 1 m/s 748 mmHg 78%
    20:00 +14°C° 0 mm 1 m/s 748 mmHg 80%
    21:00 +14°C° 0 mm 1 m/s 748 mmHg 81%
    22:00 +13°C° 0 mm 1 m/s 748 mmHg 82%
    23:00 +13°C° 0 mm 1 m/s 748 mmHg 83%

    1 Aprilie, Sâmbătă

    Timp Temperatura Precipitaţii Vânt Presiune Umiditate
    00:00 +13°C° 0 mm 1 m/s 748 mmHg 83%
    01:00 +12°C° 0 mm 1 m/s 748 mmHg 84%
    02:00 +12°C° 0 mm 1 m/s 748 mmHg 84%
    03:00 +12°C° 0 mm 1 m/s 748 mmHg 84%
    04:00 +12°C° 0 mm 1 m/s 748 mmHg 85%
    05:00 +13°C° 0 mm 1 m/s 748 mmHg 80%
    06:00 +14°C° 0 mm 1 m/s 748 mmHg 75%
    07:00 +16°C° 0 mm 1 m/s 748 mmHg 70%
    08:00 +18°C° 0 mm 1 m/s 748 mmHg 64%
    09:00 +20°C° 0 mm 1 m/s 748 mmHg 57%
    10:00 +22°C° 0 mm 1 m/s 749 mmHg 51%
    11:00 +22°C° 0,3 mm 1 m/s 748 mmHg 51%
    12:00 +23°C° 0,3 mm 2 m/s 748 mmHg 51%
    13:00 +23°C° 0,3 mm 2 m/s 748 mmHg 50%
    14:00 +21°C° 0,6 mm 2 m/s 747 mmHg 54%
    15:00 +21°C° 0,6 mm 2 m/s 747 mmHg 57%
    16:00 +20°C° 0,6 mm 2 m/s 747 mmHg 61%
    17:00 +18°C° 0,2 mm 2 m/s 747 mmHg 69%
    18:00 +16°C° 0,2 mm 1 m/s 747 mmHg 77%
    19:00 +14°C° 0,2 mm 1 m/s 747 mmHg 85%
    20:00 +14°C° 0 mm 1 m/s 748 mmHg 86%
    21:00 +14°C° 0 mm 1 m/s 748 mmHg 86%
    22:00 +13°C° 0 mm 1 m/s 748 mmHg 87%
    23:00 +13°C° 0 mm 1 m/s 748 mmHg 87%

    2 Aprilie, Duminică

    Timp Temperatura Precipitaţii Vânt Presiune Umiditate
    00:00 +13°C° 0 mm 1 m/s 748 mmHg 88%
    01:00 +12°C° 0 mm 1 m/s 748 mmHg 88%
    02:00 +12°C° 0 mm 1 m/s 748 mmHg 88%
    03:00 +12°C° 0 mm 1 m/s 748 mmHg 88%
    04:00 +11°C° 0 mm 1 m/s 748 mmHg 87%
    05:00 +12°C° 0 mm 2 m/s 748 mmHg 83%
    06:00 +14°C° 0 mm 2 m/s 749 mmHg 79%
    07:00 +15°C° 0 mm 2 m/s 749 mmHg 75%
    08:00 +18°C° 0 mm 1 m/s 749 mmHg 65%
    09:00 +20°C° 0 mm 1 m/s 749 mmHg 56%
    10:00 +22°C° 0 mm 1 m/s 749 mmHg 46%
    11:00 +21°C° 0 mm 2 m/s 749 mmHg 43%
    12:00 +23°C° 0 mm 2 m/s 749 mmHg 39%
    13:00 +23°C° 0 mm 2 m/s 748 mmHg 36%
    14:00 +22°C° 0,1 mm 3 m/s 748 mmHg 40%
    15:00 +21°C° 0,1 mm 3 m/s 748 mmHg 45%
    16:00 +20°C° 0,1 mm 3 m/s 748 mmHg 49%
    17:00 +18°C° 0 mm 2 m/s 748 mmHg 61%
    18:00 +16°C° 0 mm 2 m/s 748 mmHg 73%
    19:00 +13°C° 0 mm 1 m/s 748 mmHg 84%
    20:00 +13°C° 0 mm 1 m/s 748 mmHg 85%
    21:00 +12°C° 0 mm 1 m/s 748 mmHg 85%
    22:00 +12°C° 0 mm 1 m/s 748 mmHg 85%
    23:00 +11°C° 0 mm 1 m/s 748 mmHg 83%
    Arată mai mult